Location: Hilton Head Island
(32.2163°N, 80.7526°W)
Time: 22:32:59
(UTC-04:00)

Explorer 7 - Pass Details

Date: 22 February 2026
Orbit: 430 x 541 km, 50.2° (Epoch: 12 March)

Event Time Altitude Azimuth Distance (km) Brightness Sun altitude
Rises 14:25:37 0° 282° (WNW) 2,401 10.3 40.4°
Reaches altitude 10° 14:29:37 10° 328° (NNW) 1,555 9.1 39.9°
Maximum altitude 14:30:06 10° 336° (NNW) 1,546 9.0 39.8°
Drops below altitude 10° 14:30:34 10° 344° (NNW) 1,562 9.0 39.8°
Sets 14:34:40 0° 30° (NNE) 2,468 9.7 39.2°
